This is the latest recevied weather packets stored in our database for station/object N8QF-1. If no packets are shown the sender has not sent any weather packets the latest 1 day(s).
| Time | Temp. | Humidity | Pressure | Rain* | Wind** | Luminosity | Snow |
|---|---|---|---|---|---|---|---|
| 1778018785 | 16.11° C | 93% | 1008 hPa | 2.03 mm | 0 m/s | - | - |
| 1778018484 | 16.11° C | 93% | 1007.9 hPa | 2.03 mm | 1.79 m/s, 191° | - | - |
| 1778018183 | 16.11° C | 93% | 1008.1 hPa | 2.03 mm | 3.13 m/s, 181° | - | - |
| 1778017883 | 16.11° C | 94% | 1008 hPa | 1.27 mm | 1.79 m/s, 188° | - | - |
| 1778017582 | 16.11° C | 94% | 1007.9 hPa | 1.27 mm | 1.34 m/s, 204° | - | - |
| 1778017282 | 16.11° C | 93% | 1007.9 hPa | 1.27 mm | 3.58 m/s, 217° | - | - |
| 1778016981 | 16.11° C | 93% | 1007.9 hPa | 1.27 mm | 3.58 m/s, 194° | - | - |
| 1778016681 | 16.11° C | 92% | 1008 hPa | 1.27 mm | 2.68 m/s, 148° | - | - |
| 1778016380 | 16.11° C | 92% | 1008 hPa | 1.27 mm | 3.58 m/s, 148° | - | - |
| 1778016080 | 16.67° C | 91% | 1008 hPa | 1.27 mm | 1.34 m/s, 203° | - | - |
| 1778015779 | 16.67° C | 91% | 1008 hPa | 1.27 mm | 0.45 m/s, 166° | - | - |
| 1778015177 | 16.67° C | 91% | 1008.2 hPa | 1.27 mm | 2.24 m/s, 259° | - | - |
| 1778014876 | 16.11° C | 91% | 1008.1 hPa | 1.27 mm | 1.79 m/s, 211° | - | - |
| 1778014575 | 16.67° C | 91% | 1007.9 hPa | 1.27 mm | 1.79 m/s, 231° | - | - |
| 1778014275 | 16.11° C | 91% | 1008 hPa | 1.78 mm | 2.24 m/s, 255° | - | - |
| 1778013974 | 16.11° C | 91% | 1008.1 hPa | 1.78 mm | 2.24 m/s, 215° | - | - |
| 1778013674 | 16.11° C | 91% | 1008.1 hPa | 1.78 mm | 1.34 m/s, 233° | - | - |
| 1778013373 | 16.11° C | 90% | 1008.1 hPa | 1.78 mm | 2.24 m/s, 231° | - | - |
| 1778013072 | 16.11° C | 90% | 1008.2 hPa | 1.78 mm | 2.24 m/s, 250° | - | - |
| 1778012771 | 16.11° C | 90% | 1008.2 hPa | 1.78 mm | 4.02 m/s, 229° | - | - |
| 1778012471 | 16.67° C | 90% | 1008.1 hPa | 1.78 mm | 2.68 m/s, 235° | - | - |
| 1778012170 | 16.67° C | 89% | 1008 hPa | 1.78 mm | 1.79 m/s, 242° | - | - |
| 1778011869 | 16.11° C | 88% | 1008.1 hPa | 1.78 mm | 1.34 m/s, 190° | - | - |
| 1778011569 | 16.67° C | 88% | 1008.2 hPa | 1.78 mm | 2.68 m/s, 226° | - | - |
| 1778011268 | 16.67° C | 87% | 1008.3 hPa | 1.78 mm | 4.47 m/s, 231° | - | - |
* Rain latest hour (hover to see other rain measurements)
** Current wind speed in m/s (hover to see current wind gust speed)